Stations météo

réclame
Mon MeteoGroup
Vidsel, Suède (2154): Température de l'air & dewpoint: 18.01.2018 10:00:00 - 24.01.2018 10:00:00 (CET)Vidsel, Suède (2154): Vitesse du vent & gusts: 18.01.2018 10:00:00 - 24.01.2018 10:00:00 (CET)Vidsel, Suède (2154): Direction du vent: 18.01.2018 10:00:00 - 24.01.2018 10:00:00 (CET)Vidsel, Suède (2154): reduced air pressure: 18.01.2018 10:00:00 - 24.01.2018 10:00:00 (CET)Vidsel, Suède (2154): visibility: 18.01.2018 10:00:00 - 24.01.2018 10:00:00 (CET)Vidsel, Suède (2154): Quantités de précipitations: 18.01.2018 10:00:00 - 24.01.2018 10:00:00 (CET)
Date & Time tt [°C] td [°C] ff [km/h] ff [knt] fx [km/h] fx [knt] dd ppp [hPa] vv [km] rr [mm]
24.01.2018 10:00:00 -18,6 -20,4 0 0 4 2 N 997,6 0,7 1,0
24.01.2018 09:00:00 -19,2 -21,2 0 0 4 2 N 998,8 0,7 1,0
24.01.2018 08:00:00 -19,8 -21,9 0 0 4 2 N 1000,0 0,8 0,7
24.01.2018 07:00:00 -20,4 -22,5 0 0 4 2 N 1000,9 0,9 0,8
24.01.2018 06:00:00 -20,9 -23,0 2 1 4 2 WNW 1002,2 1,5 0,7
24.01.2018 05:00:00 -21,0 -23,1 2 1 4 2 W 1003,4 1,4 0,6
24.01.2018 04:00:00 -21,5 -23,7 0 0 4 2 N 1005,0 0,8 1,0
24.01.2018 03:00:00 -22,4 -24,8 2 1 7 4 ESE 1006,5 0,7 0,8
24.01.2018 02:00:00 -22,4 -24,8 4 2 7 4 SE 1007,4 2,6 0,4
24.01.2018 01:00:00 -23,0 -25,4 0 0 0 0 N 1008,4 5 0,0
24.01.2018 00:00:00 -24,4 -26,9 0 0 4 2 N 1009,6 9 0,0
23.01.2018 23:00:00 -26,1 -28,8 4 2 4 2 WSW 1010,7 21 0,0
23.01.2018 22:00:00 -28,7 -31,7 4 2 4 2 WSW 1011,6 50 0,0
23.01.2018 21:00:00 -32,3 -35,5 0 0 4 2 N 1011,8 35 0,0
23.01.2018 20:00:00 -33,4 -36,8 0 0 4 2 N 1012,6 40 0,0
23.01.2018 19:00:00 -32,5 -35,8 0 0 4 2 N 1013,2 4,1 0,0
23.01.2018 18:00:00 -33,0 -36,3 2 1 4 2 W 1013,5 10 0,0
23.01.2018 17:00:00 -32,1 -35,4 0 0 4 2 N 1013,8 10 0,1
23.01.2018 16:00:00 -30,9 -34,0 0 0 0 0 N 1013,9 1,0 0,0
23.01.2018 15:00:00 -30,1 -33,2 0 0 4 2 N 1014,1 10 0,0
23.01.2018 14:00:00 -29,2 -32,2 0 0 4 2 N 1014,5 10 0,0
23.01.2018 13:00:00 -28,1 -31,1 4 2 4 2 NW 1014,9 82 0,0
23.01.2018 12:00:00 -27,8 -30,7 0 0 4 2 N 1015,5 10 0,0
23.01.2018 11:00:00 -31,1 -34,3 2 1 4 2 W 1016,0 10 0,0
23.01.2018 10:00:00 -33,1 -36,4 4 2 4 2 W 1016,5 70 0,0
23.01.2018 09:00:00 -34,0 -37,4 0 0 4 2 N 1016,5 10 0,0
23.01.2018 08:00:00 -33,3 -36,7 2 1 4 2 W 1016,6 10 0,0
23.01.2018 07:00:00 -31,0 -34,1 4 2 7 4 W 1017,0 40 0,0
23.01.2018 06:00:00 -33,6 -37,0 2 1 4 2 W 1017,3 10 0,0
23.01.2018 05:00:00 -32,1 -35,4 2 1 4 2 W 1017,5 10 0,0
23.01.2018 04:00:00 -32,3 -35,4 4 2 4 2 NW 1017,9 50 0,0
23.01.2018 03:00:00 -32,0 -35,2 2 1 4 2 W 1018,3 10 0,0
23.01.2018 02:00:00 -30,5 -33,5 0 0 4 2 N 1018,5 35 0,0
23.01.2018 01:00:00 -30,6 -33,7 0 0 4 2 N 1018,4 40 0,0
23.01.2018 00:00:00 -28,3 -31,1 4 2 7 4 WNW 1018,4 35 0,0
22.01.2018 23:00:00 -27,5 -30,2 2 1 7 4 W 1018,4 6 0,0
22.01.2018 22:00:00 -26,2 -28,8 0 0 7 4 N 1018,4 45 0,0
22.01.2018 21:00:00 -27,0 -29,8 2 1 7 4 W 1018,5 10 0,0
22.01.2018 20:00:00 -25,7 -28,3 4 2 7 4 WNW 1018,5 10 0,0
22.01.2018 19:00:00 -25,4 -28,0 4 2 4 2 W 1018,3 50 0,0
22.01.2018 18:00:00 -24,8 -27,2 5 3 7 4 WNW 1018,1 10 0,0
22.01.2018 17:00:00 -24,5 -27,0 0 0 4 2 N 1018,2 10 0,0
22.01.2018 16:00:00 -24,2 -26,7 0 0 4 2 N 1017,7 45 0,0
22.01.2018 15:00:00 -21,0 -23,1 2 1 4 2 W 1017,5 10 0,0
22.01.2018 14:00:00 -20,2 -22,3 2 1 4 2 W 1017,2 10 0,3
22.01.2018 13:00:00 - - - - - - - - - -
22.01.2018 12:00:00 - - - - - - - - - -
22.01.2018 11:00:00 - - - - - - - - - -
22.01.2018 10:00:00 -20,5 -22,6 4 2 7 4 W 1016,8 7 0,1
22.01.2018 09:00:00 -19,6 -21,6 4 2 4 2 W 1016,4 5 0,2
22.01.2018 08:00:00 -19,3 -21,3 4 2 7 4 W 1016,2 2,1 0,4
22.01.2018 07:00:00 -19,4 -21,4 4 2 7 4 W 1016,2 4,8 0,2
22.01.2018 06:00:00 -19,8 -21,8 4 2 4 2 W 1016,5 2,8 0,4
22.01.2018 05:00:00 -20,6 -22,9 4 2 7 4 W 1016,6 2,3 0,3
22.01.2018 04:00:00 -22,5 -24,7 0 0 4 2 N 1016,8 5 0,2
22.01.2018 03:00:00 -22,7 -25,1 2 1 4 2 W 1016,7 5 0,3
22.01.2018 02:00:00 -20,5 -22,6 2 1 4 2 WSW 1016,6 0,8 0,5
22.01.2018 01:00:00 -18,8 -20,8 0 0 4 2 N 1016,3 1,6 0,4
22.01.2018 00:00:00 -18,2 -20,0 0 0 4 2 N 1016,7 1,5 0,2
21.01.2018 23:00:00 -18,3 -20,1 0 0 0 0 N 1016,8 2,3 0,3
21.01.2018 22:00:00 -17,5 -19,3 0 0 0 0 N 1016,6 4,7 0,4
21.01.2018 21:00:00 -17,4 -19,2 0 0 4 2 N 1016,4 1,0 0,3
21.01.2018 20:00:00 -17,5 -19,1 0 0 4 2 N 1016,3 4,4 0,2
21.01.2018 19:00:00 -18,5 -20,5 0 0 4 2 N 1016,4 40 0,0
21.01.2018 18:00:00 -16,8 -18,7 0 0 4 2 N 1016,0 4,4 0,1
21.01.2018 17:00:00 -15,3 -16,9 0 0 4 2 N 1016,0 3,4 0,2
21.01.2018 16:00:00 -15,2 -16,7 0 0 4 2 N 1015,8 6 0,1
21.01.2018 15:00:00 -13,3 -14,7 0 0 0 0 N 1015,4 1,4 0,4
21.01.2018 14:00:00 -11,9 -13,2 0 0 0 0 N 1015,0 2,0 0,4
21.01.2018 13:00:00 -11,8 -13,1 0 0 4 2 N 1014,9 2,0 0,3
21.01.2018 12:00:00 -11,8 -13,1 4 2 4 2 NW 1014,7 1,6 0,5
21.01.2018 11:00:00 -12,0 -13,3 0 0 4 2 N 1014,7 1,4 0,4
21.01.2018 10:00:00 -12,1 -13,4 0 0 4 2 N 1014,5 2,1 0,2
21.01.2018 09:00:00 -12,1 -13,4 2 1 4 2 NW 1014,3 7 0,2
21.01.2018 08:00:00 -12,2 -13,5 2 1 4 2 W 1013,9 7 0,1
21.01.2018 07:00:00 -12,3 -13,6 0 0 4 2 N 1013,9 9 0,1
21.01.2018 06:00:00 -12,4 -13,7 2 1 4 2 NNW 1013,8 10 0,0
21.01.2018 05:00:00 -12,5 -13,8 2 1 4 2 NW 1013,8 8 0,0
21.01.2018 04:00:00 -12,6 -13,9 4 2 4 2 WNW 1013,7 7 0,0
21.01.2018 03:00:00 -12,6 -13,9 2 1 4 2 W 1013,6 10 0,0
21.01.2018 02:00:00 -12,6 -13,9 2 1 4 2 - 1013,5 6 0,2
21.01.2018 01:00:00 -12,8 -14,2 4 2 4 2 W 1013,7 4,9 0,2
21.01.2018 00:00:00 -12,9 -14,3 0 0 0 0 N 1013,7 7 0,2
20.01.2018 23:00:00 -13,0 -14,4 0 0 4 2 N 1013,5 3,3 0,1
20.01.2018 22:00:00 -13,1 -14,5 0 0 4 2 N 1013,5 7 0,2
20.01.2018 21:00:00 -13,2 -14,6 2 1 4 2 W 1013,5 5 0,2
20.01.2018 20:00:00 -13,4 -14,8 2 1 4 2 WNW 1013,6 2,9 0,3
20.01.2018 19:00:00 -13,6 -15,0 4 2 4 2 WNW 1013,2 1,3 0,6
20.01.2018 18:00:00 -13,6 -15,2 0 0 4 2 N 1013,3 1,0 0,5
20.01.2018 17:00:00 -13,7 -15,1 0 0 4 2 N 1013,4 1,0 0,3
20.01.2018 16:00:00 -13,8 -15,4 0 0 4 2 N 1013,2 1,5 0,5
20.01.2018 15:00:00 -14,0 -15,6 0 0 0 0 N 1013,3 1,2 0,5
20.01.2018 14:00:00 -14,2 -15,7 0 0 0 0 N 1013,1 0,9 0,4
20.01.2018 13:00:00 -14,6 -16,1 0 0 0 0 N 1013,2 1,2 0,7
20.01.2018 12:00:00 -14,9 -16,4 2 1 4 2 W 1013,3 0,8 0,8
20.01.2018 11:00:00 -15,5 -17,2 0 0 4 2 N 1013,5 0,9 0,7
20.01.2018 10:00:00 -16,0 -17,7 0 0 4 2 N 1013,4 1,0 0,5
20.01.2018 09:00:00 -16,3 -18,1 0 0 0 0 N 1013,0 0,8 0,5
20.01.2018 08:00:00 -16,9 -18,7 0 0 0 0 N 1012,8 1,2 0,6
20.01.2018 07:00:00 -17,3 -18,9 0 0 4 2 N 1012,5 1,3 0,5
20.01.2018 06:00:00 -17,7 -19,6 0 0 4 2 N 1012,4 1,9 0,4
20.01.2018 05:00:00 -18,2 -20,1 0 0 4 2 N 1012,6 1,5 0,4
20.01.2018 04:00:00 -18,6 -20,5 2 1 7 4 - 1012,6 2,2 0,2
20.01.2018 03:00:00 -19,2 -21,2 2 1 4 2 W 1012,3 1,5 0,2
20.01.2018 02:00:00 -19,9 -22,0 0 0 4 2 N 1012,4 2,5 0,3
20.01.2018 01:00:00 -20,6 -22,7 0 0 4 2 N 1012,3 1,6 0,5
20.01.2018 00:00:00 -21,5 -23,7 0 0 4 2 N 1012,2 1,4 0,4
19.01.2018 23:00:00 -22,7 -25,1 4 2 7 4 - 1011,9 2,2 0,3
19.01.2018 22:00:00 -25,3 -27,7 4 2 4 2 W 1011,6 5 0,2
19.01.2018 21:00:00 -25,8 -28,4 2 1 4 2 W 1011,1 10 0,1
19.01.2018 20:00:00 -24,8 -27,2 0 0 4 2 N 1010,8 3,6 0,7
19.01.2018 19:00:00 -24,9 -27,3 0 0 4 2 N 1010,5 6 0,3
19.01.2018 18:00:00 -25,9 -28,5 0 0 4 2 N 1010,3 10 0,0
19.01.2018 17:00:00 -26,0 -28,7 2 1 4 2 SW 1010,1 10 0,0
19.01.2018 16:00:00 -24,2 -26,7 0 0 4 2 N 1009,4 35 0,0
19.01.2018 15:00:00 -22,9 -25,1 2 1 4 2 NNW 1008,7 10 0,0
19.01.2018 14:00:00 -20,3 -22,4 0 0 4 2 N 1008,4 10 0,0
19.01.2018 13:00:00 -19,5 -21,4 0 0 4 2 N 1008,1 4,2 0,0
19.01.2018 12:00:00 -19,9 -21,9 0 0 7 4 N 1007,7 10 0,0
19.01.2018 11:00:00 -16,7 -18,4 4 2 4 2 NW 1007,1 10 0,0
19.01.2018 10:00:00 -16,9 -18,7 2 1 4 2 WNW 1006,8 1,6 0,2
19.01.2018 09:00:00 -15,8 -17,5 4 2 7 4 W 1006,4 1,0 0,4
19.01.2018 08:00:00 -13,9 -15,3 5 3 7 4 NW 1005,8 2,6 0,5
19.01.2018 07:00:00 -13,3 -14,7 5 3 7 4 WNW 1005,6 1,3 0,5
19.01.2018 06:00:00 -13,2 -14,6 8 4 7 4 NW 1005,3 1,6 0,4
19.01.2018 05:00:00 -13,4 -14,8 8 4 7 4 NW 1005,1 2,7 0,3
19.01.2018 04:00:00 -13,8 -15,4 8 4 11 6 NW 1004,9 2,2 0,3
19.01.2018 03:00:00 -13,1 -14,5 9 5 11 6 NW 1004,9 1,4 0,4
19.01.2018 02:00:00 -13,1 -14,7 9 5 11 6 NW 1004,9 2,9 0,3
19.01.2018 01:00:00 -13,7 -15,3 8 4 11 6 NW 1004,8 2,7 0,3
19.01.2018 00:00:00 -13,0 -14,4 8 4 11 6 NW 1004,9 1,4 0,4
18.01.2018 23:00:00 -13,0 -14,4 8 4 11 6 NW 1005,0 1,5 0,4
18.01.2018 22:00:00 -13,0 -14,4 8 4 11 6 NW 1004,9 3,6 0,4
18.01.2018 21:00:00 -12,9 -14,3 8 4 11 6 NW 1004,9 2,7 0,3
18.01.2018 20:00:00 -12,9 -14,5 8 4 11 6 NW 1004,6 2,4 0,4
18.01.2018 19:00:00 -13,3 -14,7 5 3 7 4 NW 1004,6 1,4 0,5
18.01.2018 18:00:00 -13,2 -14,6 5 3 7 4 NW 1004,5 1,2 0,5
18.01.2018 17:00:00 -13,4 -14,8 5 3 7 4 NW 1004,5 1,2 0,6
18.01.2018 16:00:00 -13,9 -15,5 5 3 7 4 NW 1004,6 1,0 0,8
18.01.2018 15:00:00 -13,7 -15,1 4 2 7 4 NNW 1004,7 2,2 0,6
18.01.2018 14:00:00 -13,3 -14,7 5 3 7 4 NW 1004,6 2,2 0,5
18.01.2018 13:00:00 -13,4 -15,0 4 2 7 4 NW 1004,4 2,5 0,4
18.01.2018 12:00:00 -12,7 -14,3 4 2 11 6 - 1004,6 2,2 0,4
18.01.2018 11:00:00 -12,8 -14,4 8 4 18 10 E 1004,6 2,5 0,4
18.01.2018 10:00:00 -12,8 -14,4 5 3 7 4 ENE 1004,7 5 0,3

tt = Température de l'air
td = dewpoint
ff = Vitesse du vent
fx = gusts
dd = Direction du vent
ppp = reduced air pressure
vv = visibility
rr = Quantités de précipitations

stations d'obs. à proximité